Weather History for GMAD - December, 2013

Change the Weather History Date:

Sunday, December 15, 2013

  Actual Average Record
Temperature  
Mean Temperature 62 °F -  
Max Temperature 78 °F - - ()
Min Temperature 47 °F - - ()
Degree Days  
Heating Degree Days 2    
Growing Degree Days 12 (Base 50)    
Moisture  
Dew Point 39 °F    
Average Humidity 46    
Maximum Humidity 71    
Minimum Humidity 9    
Precipitation  
Precipitation 0.00 in - - ()
Sea Level Pressure  
Sea Level Pressure 30.25 in    
Wind  
Wind Speed 6 mph ()    
Max Wind Speed 14 mph    
Max Gust Speed -    
Visibility 6.0 miles    
Events      
T = Trace of Precipitation, MM = Missing Value Source: Averaged Metar Reports

Daily Weather History Graph

Daily Weather History Graph

Search for Another Location

Airport or City:

Trip Planner

Search our weather history database for the weather conditions in past years. The results will help you decide how hot, cold, wet, or windy it might be!

Date:

Astronomy

Dec. 15, 2013 Rise Set
Actual Time 7:26 AM WET 5:38 PM WET
Civil Twilight 7:00 AM WET 6:05 PM WET
Nautical Twilight 6:30 AM WET 6:35 PM WET
Astronomical Twilight 6:00 AM WET 7:04 PM WET
Moon 4:28 PM WET (12/15) 5:36 AM WET (12/15)
Length of Visible Light 11h 05m
Length of Day
10h 12m
Waxing Gibbous, 97% of the Moon is Illuminated
Dec 15
Waxing Gibbous
Dec 17
Full
Dec 25
Last Quarter
Jan 1
New
Jan 8
First Quarter

Hourly Weather History & Observations

Time (WET) Temp. Dew Point Humidity Pressure Visibility Wind Dir Wind Speed Gust Speed Precip Events Conditions
12:00 AM 50 °F 39 °F 55% 30.30 in 6 mi Calm Calm - -  
12:00 AM 50.0 °F 39.2 °F 66% 30.27 in - Calm Calm - N/A   Unknown
1:00 AM 48.2 °F 37.4 °F 66% 30.27 in - Calm Calm - N/A   Unknown
2:00 AM 48.2 °F 39.2 °F 71% 30.27 in - ENE 5.8 mph - N/A   Clear
3:00 AM 49 °F 39 °F 58% 30.29 in 6 mi ENE 8.1 mph - -  
3:00 AM 50.0 °F 39.2 °F 66% 30.27 in - ENE 8.1 mph - N/A   Clear
4:00 AM 50.0 °F 37.4 °F 62% 30.27 in - ENE 9.2 mph - N/A   Unknown
5:00 AM 50.0 °F 39.2 °F 66% 30.27 in - East 12.7 mph - N/A   Unknown
6:00 AM 51 °F 38 °F 50% 30.28 in - ENE 10.4 mph - -  
6:00 AM 50.0 °F 37.4 °F 62% 30.27 in - ENE 10.4 mph - N/A   Unknown
7:00 AM 51.8 °F 37.4 °F 58% 30.27 in - NE 10.4 mph - N/A   Clear
8:00 AM 51.8 °F 37.4 °F 58% 30.30 in - ENE 12.7 mph - N/A   Clear
9:00 AM 56 °F 38 °F 38% 30.32 in - ENE 11.5 mph - -  
9:00 AM 57.2 °F 37.4 °F 48% 30.30 in - ENE 11.5 mph - N/A   Unknown
10:00 AM 64.4 °F 37.4 °F 37% 30.30 in 6.2 mi ENE 12.7 mph - N/A   Unknown
11:00 AM 69.8 °F 37.4 °F 31% 30.30 in - ENE 13.8 mph - N/A   Clear
1:00 PM 75.2 °F 33.8 °F 22% 30.21 in - ENE 12.7 mph - N/A   Clear
2:00 PM 77.0 °F 33.8 °F 21% 30.21 in - NE 9.2 mph - N/A   Clear
3:00 PM 78 °F 30 °F 9% 30.19 in 6 mi ENE 5.8 mph - -   Clear
3:00 PM 78.8 °F 30.2 °F 17% 30.18 in - ENE 5.8 mph - N/A   Clear
4:00 PM 77.0 °F 30.2 °F 18% 30.18 in - Calm Calm - N/A   Clear
5:00 PM 71.6 °F 39.2 °F 31% 30.18 in - West 9.2 mph - N/A   Clear
6:00 PM 69 °F 39 °F 22% 30.19 in 6 mi Calm Calm - -   Clear
6:00 PM 68.0 °F 39.2 °F 35% 30.18 in - Calm Calm - N/A   Clear
7:00 PM 66.2 °F 39.2 °F 37% 30.21 in - WSW 4.6 mph - N/A   Clear
8:00 PM 62.6 °F 44.6 °F 52% 30.24 in - South 5.8 mph - N/A   Clear
9:00 PM 62 °F 47 °F 49% 30.25 in 6 mi South 9.2 mph - -  
9:00 PM 60.8 °F 48.2 °F 63% 30.24 in - South 9.2 mph - N/A   Clear
10:00 PM 60.8 °F 48.2 °F 63% 30.27 in - South 9.2 mph - N/A   Clear
11:00 PM 59.0 °F 46.4 °F 63% 30.27 in - Calm Calm - N/A   Clear